AI4ZL Weather Reports


time (UTC)temp
F
wind
direction
speed
knots
gust
knots
rain 1hr
in
rain 24hr
in
rain mn
in
humidity
%
barometer
mb
20260901232301 95 351 0.0 0.9 0.00 0.00 0.00 59 1017.9
20260901231235 95 358 0.0 0.9 0.00 0.00 0.00 59 1017.9
20260901230248 96 271 0.0 0.9 0.00 0.00 0.00 56 1017.8
20260901225243 96 359 0.0 0.9 0.00 0.00 0.00 55 1017.8
20260901224236 97 302 0.0 0.9 0.00 0.00 0.00 56 1017.9
20260901223252 97 251 0.9 2.6 0.00 0.00 0.00 53 1017.9
20260901222238 97 254 0.9 2.6 0.00 0.00 0.00 52 1017.8
20260901221252 98 268 1.7 3.5 0.00 0.00 0.00 49 1017.9
20260901220246 97 228 0.9 2.6 0.00 0.00 0.00 52 1017.9
20260901215243 98 205 0.9 1.7 0.00 0.00 0.00 52 1017.7
20260901214243 97 223 1.7 3.5 0.00 0.00 0.00 53 1017.9
20260901213238 98 285 0.9 2.6 0.00 0.00 0.00 52 1018.1
20260901212309 98 264 1.7 2.6 0.00 0.00 0.00 52 1017.9
20260901211240 97 116 0.9 1.7 0.00 0.00 0.00 53 1017.9
20260901210233 97 111 0.9 1.7 0.00 0.00 0.00 54 1018.0
20260901205245 98 264 0.9 2.6 0.00 0.00 0.00 52 1018.1
20260901204238 98 180 1.7 2.6 0.00 0.00 0.00 52 1018.1
20260901203310 99 273 0.9 2.6 0.00 0.00 0.00 50 1018.3
20260901202242 99 27 0.9 1.7 0.00 0.00 0.00 53 1018.4
20260901201252 98 33 0.9 2.6 0.00 0.00 0.00 53 1018.4
20260901200303 95 38 1.7 2.6 0.00 0.00 0.00 57 1018.4
20260901195235 94 261 1.7 2.6 0.00 0.00 0.00 59 1018.7
20260901194306 95 304 0.9 2.6 0.00 0.00 0.00 59 1018.9
20260901193239 96 298 0.0 1.7 0.00 0.00 0.00 59 1018.9
20260901192252 94 324 0.0 0.9 0.00 0.00 0.00 60 1019.1
20260901191241 94 278 1.7 5.2 0.00 0.00 0.00 59 1019.2
20260901190231 95 274 1.7 3.5 0.00 0.00 0.00 58 1019.3
20260901185241 96 278 1.7 3.5 0.00 0.00 0.00 58 1019.4
20260901184231 93 281 0.9 2.6 0.00 0.00 0.00 60 1019.5
20260901183243 95 270 2.6 5.2 0.00 0.00 0.00 58 1019.6
20260901182233 95 293 0.9 3.5 0.00 0.00 0.00 58 1019.6
20260901181244 95 266 3.5 7.8 0.00 0.00 0.00 57 1019.6
20260901180307 97 286 1.7 5.2 0.00 0.00 0.00 57 1019.9
20260901175258 94 290 1.7 6.1 0.00 0.00 0.00 60 1019.9
20260901174231 94 259 2.6 7.8 0.00 0.00 0.00 59 1020.0
20260901173243 94 269 3.5 7.0 0.00 0.00 0.00 59 1020.1
20260901172236 94 256 4.3 6.1 0.00 0.00 0.00 60 1020.1
20260901171250 94 255 4.3 7.0 0.00 0.00 0.00 59 1020.3
20260901170305 94 266 5.2 7.8 0.00 0.00 0.00 59 1020.4
20260901165238 94 270 4.3 11.3 0.00 0.00 0.00 59 1020.4
20260901164233 93 274 4.3 8.7 0.00 0.00 0.00 59 1020.3
20260901163244 94 275 3.5 7.0 0.00 0.00 0.00 61 1020.6
20260901162238 93 280 2.6 5.2 0.00 0.00 0.00 63 1020.6
20260901161242 93 279 1.7 2.6 0.00 0.00 0.00 66 1020.7
20260901160306 92 266 2.6 6.1 0.00 0.00 0.00 66 1020.8
20260901155240 92 243 0.9 5.2 0.00 0.00 0.00 67 1020.7
20260901154233 91 261 1.7 5.2 0.00 0.00 0.00 68 1020.7
20260901153248 91 245 0.9 2.6 0.00 0.00 0.00 71 1020.7
20260901152240 90 195 1.7 3.5 0.00 0.00 0.00 71 1020.7
20260901151235 89 228 0.9 3.5 0.00 0.00 0.00 73 1020.7
20260901150249 89 212 0.9 1.7 0.00 0.00 0.00 72 1020.9
20260901145246 88 246 0.9 1.7 0.00 0.00 0.00 74 1020.6
20260901144236 87 162 1.7 2.6 0.00 0.00 0.00 76 1020.6
20260901143249 87 208 1.7 1.7 0.00 0.00 0.00 77 1020.6
20260901142241 86 188 1.7 2.6 0.00 0.00 0.00 77 1020.7
20260901141233 86 264 1.7 2.6 0.00 0.00 0.00 79 1020.6
20260901140248 85 246 0.9 5.2 0.00 0.00 0.00 80 1020.7
20260901135242 84 216 1.7 3.5 0.00 0.00 0.00 81 1020.7
20260901134237 83 261 0.9 1.7 0.00 0.00 0.00 84 1020.8
20260901133249 82 210 0.9 2.6 0.00 0.00 0.00 86 1020.9
20260901132236 81 215 0.9 1.7 0.00 0.00 0.00 88 1020.9
20260901131230 80 190 1.7 2.6 0.00 0.00 0.00 89 1020.9
20260901130305 79 221 0.9 1.7 0.00 0.00 0.00 92 1020.8
20260901125238 77 268 0.9 0.9 0.00 0.00 0.00 96 1020.8
20260901124232 75 0.0 0.0 0.00 0.00 0.00 98 1020.7
20260901123248 74 0.0 0.0 0.00 0.00 0.00 99 1020.6
20260901122306 74 0.0 0.0 0.00 0.00 0.00 99 1020.6
20260901121257 73 0.0 0.0 0.00 0.00 0.00 99 1020.4
20260901120231 73 0.0 0.0 0.00 0.00 0.00 99 1020.3
20260901115247 73 0.0 0.0 0.00 0.00 0.00 99 1020.3
20260901114241 72 0.0 0.0 0.00 0.00 0.00 99 1020.0
20260901113236 72 0.0 0.0 0.00 0.00 0.00 99 1020.0
20260901112231 72 0.0 0.0 0.00 0.00 0.00 99 1019.7
20260901111247 72 0.0 0.0 0.00 0.00 0.00 99 1019.8
20260901110301 72 0.0 0.0 0.00 0.00 0.00 99 1019.7
20260901105235 72 0.0 0.0 0.00 0.00 0.00 99 1019.7
20260901104250 72 0.0 0.0 0.00 0.00 0.00 99 1019.4
20260901103246 72 0.0 0.0 0.00 0.00 0.00 99 1019.3
20260901102241 72 0.0 0.0 0.00 0.00 0.00 99 1019.3
20260901101256 72 0.0 0.0 0.00 0.00 0.00 99 1019.3
20260901100251 72 0.0 0.0 0.00 0.00 0.00 99 1019.3
20260901095246 72 0.0 0.0 0.00 0.00 0.00 99 1019.4
20260901094242 72 0.0 0.0 0.00 0.00 0.00 99 1019.4
20260901093239 73 0.0 0.0 0.00 0.00 0.00 99 1019.2
20260901092234 72 0.0 0.0 0.00 0.00 0.00 99 1019.0
20260901091249 72 0.0 0.0 0.00 0.00 0.00 99 1019.0
20260901090244 72 0.0 0.0 0.00 0.00 0.00 99 1018.9
20260901085239 72 0.0 0.0 0.00 0.00 0.00 99 1018.9
20260901084233 72 0.0 0.0 0.00 0.00 0.00 99 1018.9
20260901083308 72 0.0 0.0 0.00 0.00 0.00 99 1018.8
20260901082242 72 0.0 0.0 0.00 0.00 0.00 99 1018.8
20260901081239 73 0.0 0.0 0.00 0.00 0.00 99 1018.8
20260901080234 73 0.0 0.0 0.00 0.00 0.00 99 1018.8
20260901075250 72 0.0 0.0 0.00 0.00 0.00 99 1018.8
20260901074304 72 0.0 0.0 0.00 0.00 0.00 99 1018.8
20260901073238 72 0.0 0.0 0.00 0.00 0.00 99 1018.6
20260901072233 72 0.0 0.0 0.00 0.00 0.00 99 1018.7
20260901071309 72 0.0 0.0 0.00 0.00 0.00 99 1018.6
20260901070304 72 0.0 0.0 0.00 0.00 0.00 99 1018.6
20260901065239 72 0.0 0.0 0.00 0.00 0.00 99 1018.6
20260901064233 72 0.0 0.0 0.00 0.00 0.00 99 1018.7
20260901063248 72 0.0 0.0 0.00 0.00 0.00 99 1018.6
20260901062244 72 0.0 0.0 0.00 0.00 0.00 99 1018.6
20260901061238 72 0.0 0.0 0.00 0.00 0.00 99 1018.6
20260901060233 72 0.0 0.0 0.00 0.00 0.00 99 1018.8
20260901055248 72 0.0 0.0 0.00 0.00 0.00 99 1018.8
20260901054243 72 0.0 0.0 0.00 0.00 0.00 99 1018.9
20260901053238 72 0.0 0.0 0.00 0.00 0.00 99 1018.9
20260901052233 73 0.0 0.0 0.00 0.00 0.00 99 1018.9
20260901051249 73 0.0 0.0 0.00 0.00 0.00 99 1018.8
20260901050244 73 0.0 0.0 0.00 0.00 0.00 99 1019.0
20260901045238 73 0.0 0.0 0.00 0.00 0.00 99 1018.9
20260901044233 74 0.0 0.0 0.00 0.00 0.00 99 1019.0
20260901043248 73 0.0 0.0 0.00 0.00 0.00 99 1018.8
20260901042305 74 0.0 0.0 0.00 0.00 0.00 99 1018.9
20260901041239 74 0.0 0.0 0.00 0.00 0.00 99 1018.9
20260901040232 74 0.0 0.0 0.00 0.00 0.00 99 1019.0
20260901035248 74 0.0 0.0 0.00 0.00 0.00 99 1019.2
20260901034244 74 0.0 0.0 0.00 0.00 0.00 99 1019.1
20260901033240 74 0.0 0.0 0.00 0.00 0.00 98 1019.1
20260901032255 74 0.0 0.0 0.00 0.00 0.00 98 1019.2
20260901031250 75 0.0 0.0 0.00 0.00 0.00 98 1019.2
20260901030245 75 0.0 0.0 0.00 0.00 0.00 98 1019.2
20260901025241 76 0.0 0.0 0.00 0.00 0.00 98 1019.1
20260901024236 76 0.0 0.0 0.00 0.00 0.00 98 1018.9
20260901023231 76 314 0.0 0.9 0.00 0.00 0.00 97 1018.7
20260901022246 77 0.0 0.0 0.00 0.00 0.00 97 1018.8
20260901021240 77 0.0 0.0 0.00 0.00 0.00 96 1018.8
20260901020234 77 308 0.0 0.9 0.00 0.00 0.00 95 1018.7
20260901015250 78 300 0.0 0.9 0.00 0.00 0.00 94 1018.7
20260901014245 78 325 0.0 0.9 0.00 0.00 0.00 93 1018.5
20260901013300 78 323 0.0 1.7 0.00 0.00 0.00 93 1018.5
20260901012235 78 307 0.0 0.9 0.00 0.00 0.00 93 1018.3
20260901011250 79 310 0.0 0.9 0.00 0.00 0.00 93 1018.1
20260901010305 80 306 0.9 0.9 0.00 0.00 0.00 90 1018.0
20260901005240 81 316 0.0 0.9 0.00 0.00 0.00 87 1017.9
20260901004234 82 0.0 0.0 0.00 0.00 0.00 84 1017.8
20260901003249 83 335 0.0 0.9 0.00 0.00 0.00 82 1017.8
20260901002305 86 0.0 0.0 0.00 0.00 0.00 79 1017.7
20260901001239 88 0.0 0.0 0.00 0.00 0.00 75 1017.6
20260901000233 89 0.0 0.0 0.00 0.00 0.00 73 1017.6
20260831235248 91 1 0.0 0.9 0.00 0.00 0.00 68 1017.6
20260831234244 92 11 0.0 0.9 0.00 0.00 0.00 64 1017.7
20260831233238 93 0.0 0.0 0.00 0.00 0.00 63 1017.9